Home   Weather   Zittau   Past weeks

Flag for Germany Past Weather in Zittau, Saxony, Germany — Yesterday and Last 2 Weeks

Now
16 °F

Fog.


Feels Like: 16 °F
Forecast: 6 / 27 °F
Wind: 1 mph from Southeast

Location: Liberec

Current Time: Jan 19, 2017 at 8:44:15 pm

Latest Report: Jan 19, 2017 at 7:00 pm


Visibility: 5 mi

Pressure: 30.71 "Hg

Humidity: 95%

Dew Point: 15 °F

Location of ZittauLocation

Past Weather in Zittau — Graph

°F

Zittau Temperature Yesterday

Maximum temperature yesterday: 22 °F (at 12:00 am)
Minimum temperature yesterday: 13 °F (at 11:00 pm)
Average temperature yesterday: 17 °F

High & Low Weather Summary for the Past Weeks

 TemperatureHumidityPressure
High37 °F (Jan 13, 8:00 am)99% (Jan 13, 7:00 pm)30.78 "Hg (Jan 13, 7:00 pm)
Low0 °F (Jan 19, 7:00 am)46% (Jan 19, 3:00 pm)29.23 "Hg (Jan 13, 8:00 am)
Average22 °F86%30.21 "Hg
* Reported Jan 4 7:00 pm — Jan 19 7:00 pm, Zittau, Weather by CustomWeather, © 2017

Note: Actual official high and low records may vary slightly from our data, if they occured in-between our weather recording intervals... More about our weather records

Advertising

Zittau Weather History for the Previous 24 Hours

Scroll right to see more
 ConditionsComfort  
Time TempWeatherWind HumidityBarometerVisibility
7:00 pm
Thu, Jan 19
16 °FFog.1 mph95%30.71 "Hg5 mi
6:00 pm16 °FFog.1 mph93%30.70 "Hg4 mi
5:00 pm16 °FFog.1 mph91%30.70 "Hg6 mi
4:00 pm20 °FPassing clouds.1 mph75%30.69 "Hg14 mi
3:00 pm24 °FPassing clouds.1 mph46%30.68 "Hg14 mi
2:00 pm22 °FPassing clouds.1 mph47%30.70 "Hg12 mi
1:00 pm20 °FSunny.1 mph47%30.71 "Hg11 mi
12:00 pm22 °FPassing clouds.1 mph54%30.71 "Hg11 mi
11:00 am17 °FPassing clouds.No wind65%30.73 "Hg11 mi
10:00 am11 °FPassing clouds.1 mph89%30.76 "Hg8 mi
9:00 am4 °FPassing clouds.1 mph87%30.78 "Hg9 mi
8:00 am2 °FPassing clouds.1 mph85%30.78 "Hg9 mi
7:00 am0 °FPassing clouds.1 mph85%30.78 "Hg7 mi
6:00 am3 °FFrigid.1 mph86%30.76 "Hg2 mi
5:00 am6 °FSnow flurries. Overcast.1 mph88%30.77 "Hg1 mi
4:00 am8 °FDuststorm.1 mph89%30.77 "Hg0 mi
3:00 am8 °FFog.1 mph89%30.78 "Hg1 mi
2:00 am5 °FFrigid.1 mph86%30.78 "Hg3 mi
1:00 am13 °FSnow flurries. Overcast.2 mph92%30.75 "Hg1 mi
12:00 am13 °FLight snow. Overcast.1 mph92%30.76 "Hg0 mi
11:00 pm
Wed, Jan 18
13 °FSnow flurries. Overcast.2 mph93%30.78 "Hg1 mi
10:00 pm15 °FFog.1 mph94%30.77 "Hg1 mi
9:00 pm15 °FFog.1 mph93%30.76 "Hg1 mi
8:00 pm16 °FFog.1 mph94%30.76 "Hg1 mi
Weather by CustomWeather, © 2017

See weather overviewHow to use our weather pages